PST,Max TemperatureF,Mean TemperatureF,Min TemperatureF,Max Dew PointF,MeanDew PointF,Min DewpointF,Max Humidity, Mean Humidity, Min Humidity, Max Sea Level PressureIn, Mean Sea Level PressureIn, Min Sea Level PressureIn, Max VisibilityMiles, Mean VisibilityMiles, Min VisibilityMiles, Max Wind SpeedMPH, Mean Wind SpeedMPH, Max Gust SpeedMPH,PrecipitationIn, CloudCover, Events, WindDirDegrees
2014-1-1,,,,,,,,,,,,,,,,,,,,,,
2014-1-2,,,,,,,,,,,,,,,,,,,,,,
2014-1-3,57,54,50,54,52,50,100,91,83,30.05,30.00,29.95,7,2,0,14,6,,0.00,7,Fog,198
2014-1-4,,,,,,,,,,,,,,,,,,,,,,
2014-1-5,,,,,,,,,,,,,,,,,,,,,,
2014-1-6,69,64,59,50,40,25,58,40,27,30.22,30.18,30.13,10,10,10,7,5,,0.00,2,,235
2014-1-7,63,60,57,55,53,52,82,77,72,30.16,30.11,30.07,10,10,10,10,6,,0.00,4,,260
2014-1-8,62,60,57,56,55,54,94,84,78,30.15,30.09,30.05,10,10,10,12,8,,0.00,5,,283
2014-1-9,61,58,55,53,53,52,88,80,75,30.12,30.07,30.01,10,10,10,15,6,,0.00,6,,349
2014-1-10,64,58,53,57,52,48,87,76,56,30.15,30.10,30.05,10,10,10,12,9,,0.00,2,,197
2014-1-11,,,,,,,,,,,,,,,,,,,,,,
2014-1-12,,,,,,,,,,,,,,,,,,,,,,
2014-1-13,73,66,60,46,33,20,59,30,16,30.31,30.27,30.23,10,10,10,16,9,,0.00,0,,85
2014-1-14,78,71,64,44,35,28,40,26,16,30.31,30.26,30.20,10,10,10,16,10,,0.00,0,,39
2014-1-15,80,72,64,36,29,22,34,19,12,30.22,30.18,30.13,10,10,10,14,9,,0.00,0,,28
2014-1-16,81,74,62,48,34,24,48,26,12,30.15,30.10,30.06,10,10,10,12,7,,0.00,1,,134
2014-1-17,79,70,62,41,27,18,29,19,11,30.12,30.09,30.05,10,10,10,14,6,,0.00,2,,187
2014-1-18,,,,,,,,,,,,,,,,,,,,,,
2014-1-19,,,,,,,,,,,,,,,,,,,,,,
2014-1-20,59,57,57,52,51,50,82,78,72,30.17,30.17,30.16,10,10,10,8,6,,0.00,5,,17
2014-1-21,63,62,60,58,51,27,86,72,26,30.18,30.13,30.07,8,6,2,7,3,,0.00,8,,266
2014-1-22,62,58,55,56,53,33,89,80,42,30.04,29.98,29.91,7,3,0,17,7,,0.00,5,Fog,204
2014-1-23,62,58,55,53,52,47,88,79,72,30.00,29.96,29.94,10,9,7,9,7,,0.00,6,,127
2014-1-24,64,62,59,58,56,55,94,83,73,30.23,30.19,30.13,6,6,4,13,10,,0.00,8,,103
2014-1-25,,,,,,,,,,,,,,,,,,,,,,
2014-1-26,64,63,62,54,54,54,72,71,68,30.12,30.09,30.06,10,10,10,7,7,,0.00,8,,280
2014-1-27,62,60,57,55,53,51,87,78,70,30.13,30.09,30.05,10,10,2,15,11,,0.00,6,,269
2014-1-28,64,59,54,57,55,51,96,85,77,30.15,30.09,30.05,10,8,0,9,8,,0.00,6,Fog,201
2014-1-29,64,60,55,57,56,54,96,86,75,30.10,30.03,29.97,7,5,0,12,8,,0.00,5,Fog,201
2014-1-30,63,60,57,56,55,53,90,81,72,29.99,29.94,29.92,10,9,7,13,7,,0.00,7,,294
2014-1-31,59,58,57,47,46,43,69,65,58,30.02,29.99,29.96,10,10,10,23,21,31,0.00,7,,297